SWA561 KCLT-KMEM

Flight info

Callsign SWA561
Flight time N/A
Altitude 34000
Route BOBZY5 BNA BLUZZ5
Aircraft B738/M-SDE2E3FGHIRWXY/LB1

Departure

Time 2026-05-01 15:03
Airport Charlotte Douglas International Airport (KCLT)

Arrival

Time N/A
Airport Memphis International Airport (KMEM)
Time Latitude Longitude Altitude Speed Heading
2026-05-01 14:49 35.22246 -80.94187 747 ft 0 kts 124°
2026-05-01 14:56 35.22257 -80.94208 743 ft 2 kts 124°
2026-05-01 14:56 35.22267 -80.94225 743 ft 2 kts 124°
2026-05-01 14:57 35.22276 -80.94242 743 ft 2 kts 124°
2026-05-01 14:57 35.22265 -80.94221 743 ft 0 kts 124°
2026-05-01 14:59 35.22312 -80.94202 748 ft 21 kts 15°
2026-05-01 15:00 35.22598 -80.94153 752 ft 18 kts 27°
2026-05-01 15:00 35.22640 -80.94015 751 ft 18 kts 85°
2026-05-01 15:00 35.22615 -80.93875 749 ft 16 kts 126°
2026-05-01 15:01 35.22520 -80.93823 750 ft 12 kts 146°
2026-05-01 15:01 35.22504 -80.93769 753 ft 10 kts 92°
2026-05-01 15:01 35.22510 -80.93657 751 ft 10 kts 95°
2026-05-01 15:01 35.22487 -80.93622 751 ft 0 kts 161°
2026-05-01 15:02 35.22142 -80.93583 748 ft 93 kts 175°
2026-05-01 15:02 35.21234 -80.93502 747 ft 165 kts 175°
2026-05-01 15:03 35.20045 -80.93409 1397 ft 181 kts 173°
2026-05-01 15:03 35.18739 -80.93372 2379 ft 188 kts 184°
2026-05-01 15:03 35.17577 -80.94002 3598 ft 185 kts 217°
2026-05-01 15:03 35.16755 -80.95226 4419 ft 193 kts 238°
2026-05-01 15:04 35.16379 -80.96226 4914 ft 199 kts 248°
2026-05-01 15:04 35.16036 -80.97954 5224 ft 220 kts 248°
2026-05-01 15:04 35.15210 -80.99562 5657 ft 228 kts 232°
2026-05-01 15:04 35.14237 -81.01120 6194 ft 234 kts 232°
2026-05-01 15:05 35.13236 -81.02709 6798 ft 237 kts 232°
2026-05-01 15:05 35.12011 -81.04951 7578 ft 241 kts 253°
2026-05-01 15:05 35.11922 -81.06302 7995 ft 244 kts 277°
2026-05-01 15:05 35.12496 -81.08270 8608 ft 251 kts 290°
2026-05-01 15:06 35.13198 -81.10320 8947 ft 268 kts 289°
2026-05-01 15:06 35.13884 -81.12463 9760 ft 270 kts 288°
2026-05-01 15:06 35.14531 -81.14612 10556 ft 274 kts 287°
2026-05-01 15:06 35.15186 -81.16901 10854 ft 297 kts 287°
2026-05-01 15:07 35.15853 -81.19322 11370 ft 308 kts 286°
2026-05-01 15:07 35.16525 -81.21812 12263 ft 308 kts 286°
2026-05-01 15:07 35.17190 -81.24307 13191 ft 308 kts 286°
2026-05-01 15:07 35.17847 -81.26802 14086 ft 309 kts 285°
2026-05-01 15:08 35.18506 -81.29310 14833 ft 311 kts 285°
2026-05-01 15:08 35.19113 -81.31840 15608 ft 310 kts 281°
2026-05-01 15:08 35.19420 -81.34450 16356 ft 310 kts 273°
2026-05-01 15:08 35.19409 -81.37089 17093 ft 312 kts 269°
2026-05-01 15:09 35.19324 -81.39757 17793 ft 315 kts 268°
2026-05-01 15:09 35.19230 -81.42451 18523 ft 317 kts 268°
2026-05-01 15:09 35.19143 -81.45139 19244 ft 316 kts 268°
2026-05-01 15:09 35.19064 -81.47792 19869 ft 318 kts 268°
2026-05-01 15:10 35.18986 -81.50491 20531 ft 318 kts 268°
2026-05-01 15:10 35.18822 -81.55914 21781 ft 321 kts 268°
2026-05-01 15:10 35.18726 -81.58645 22383 ft 322 kts 268°
2026-05-01 15:11 35.18629 -81.61382 22976 ft 323 kts 268°
2026-05-01 15:11 35.18468 -81.66900 24008 ft 326 kts 269°
2026-05-01 15:11 35.18415 -81.69673 24476 ft 327 kts 269°
2026-05-01 15:12 35.18364 -81.72456 24938 ft 328 kts 269°
2026-05-01 15:12 35.18275 -81.77112 25667 ft 330 kts 269°
2026-05-01 15:12 35.18200 -81.80882 26217 ft 333 kts 269°
2026-05-01 15:13 35.18019 -81.89419 27477 ft 337 kts 269°
2026-05-01 15:14 35.17894 -81.95168 28249 ft 340 kts 269°
2026-05-01 15:14 35.17851 -81.97091 28480 ft 342 kts 269°
2026-05-01 15:14 35.17698 -82.03882 29281 ft 346 kts 269°
2026-05-01 15:15 35.17562 -82.09789 29986 ft 349 kts 269°
2026-05-01 15:15 35.17422 -82.15739 30628 ft 350 kts 269°
2026-05-01 15:16 35.17612 -82.21666 31284 ft 350 kts 277°
2026-05-01 15:16 35.18729 -82.27446 32057 ft 347 kts 283°
2026-05-01 15:17 35.20069 -82.33027 32992 ft 339 kts 282°
2026-05-01 15:18 35.22031 -82.41251 33947 ft 336 kts 282°
2026-05-01 15:19 35.24625 -82.52268 34046 ft 337 kts 282°
2026-05-01 15:19 35.26556 -82.60509 34050 ft 335 kts 282°
2026-05-01 15:20 35.28471 -82.68719 34049 ft 333 kts 282°
2026-05-01 15:21 35.29740 -82.74168 34040 ft 333 kts 282°
2026-05-01 15:21 35.30995 -82.79575 34022 ft 331 kts 282°
2026-05-01 15:22 35.32873 -82.87684 34020 ft 329 kts 281°
2026-05-01 15:22 35.34121 -82.93094 34014 ft 331 kts 281°
2026-05-01 15:23 35.35379 -82.98548 34005 ft 334 kts 281°
2026-05-01 15:23 35.36641 -83.04049 34001 ft 337 kts 282°
2026-05-01 15:24 35.37913 -83.09590 33983 ft 337 kts 282°
2026-05-01 15:24 35.39181 -83.15133 34004 ft 338 kts 281°
2026-05-01 15:25 35.40437 -83.20633 33987 ft 336 kts 281°
2026-05-01 15:25 35.41693 -83.26149 33980 ft 335 kts 281°
2026-05-01 15:26 35.42933 -83.31634 34005 ft 333 kts 281°
2026-05-01 15:26 35.44169 -83.37106 33990 ft 332 kts 281°
2026-05-01 15:27 35.45396 -83.42546 33992 ft 330 kts 281°
2026-05-01 15:28 35.47224 -83.50674 34002 ft 328 kts 281°
2026-05-01 15:28 35.48228 -83.55158 34002 ft 328 kts 281°
2026-05-01 15:29 35.50038 -83.63255 34005 ft 327 kts 280°
2026-05-01 15:30 35.52631 -83.74908 33997 ft 327 kts 280°
2026-05-01 15:31 35.56190 -83.91002 34025 ft 326 kts 280°
2026-05-01 15:32 35.58555 -84.01750 34014 ft 326 kts 280°
2026-05-01 15:34 35.62115 -84.18027 34039 ft 330 kts 280°